Location: Drawsko Pomorskie
(53.5317°N, 15.8111°E)
Time: 03:44:51
(UTC+01:00)

Envisat - Pass Details

Date: 25 October 2019
Orbit: 764 x 766 km, 98.1° (Epoch: 18 November)

Event Time Altitude Azimuth Distance (km) Brightness Sun altitude
Rises 19:45:34 0° 194° (SSW) 3,223 6.3 -19.4°
Reaches altitude 10° 19:48:07 10° 205° (SSW) 2,302 5.7 -19.7°
Maximum altitude 19:52:35 31° 267° (W) 1,340 4.9 -20.4°
Drops below altitude 10° 19:57:04 10° 328° (NNW) 2,316 6.0 -21.1°
Sets 19:59:40 0° 339° (NNW) 3,247 6.6 -21.4°
